Time+07,TemperatureF,Dew PointF,Humidity,Sea Level PressureIn,VisibilityMPH,Wind Direction,Wind SpeedMPH,Gust SpeedMPH,PrecipitationIn,Events,Conditions,WindDirDegrees,DateUTC
12:00 AM,87.8,71.6,58,29.77,5.6,SSW,4.6,-,N/A,,Scattered Clouds,200,2013-03-28 17:00:00
12:30 AM,86.0,71.6,62,29.77,5.6,SSW,5.8,-,N/A,,Scattered Clouds,210,2013-03-28 17:30:00
1:00 AM,84.2,71.6,66,29.74,5.6,SSW,5.8,-,N/A,,Scattered Clouds,210,2013-03-28 18:00:00
6:00 AM,80.6,75.2,84,29.77,5.0,SSE,6.9,-,N/A,,Unknown,160,2013-03-28 23:00:00
6:30 AM,80.6,73.4,79,29.77,6.2,SSE,6.9,-,N/A,,Partly Cloudy,160,2013-03-28 23:30:00
7:00 AM,81,76,80,29.83,6,South,4.5,,,,Partly Cloudy,180,2013-03-29 00:00:00
7:00 AM,82.4,73.4,74,29.80,6.2,SSE,6.9,-,N/A,,Partly Cloudy,150,2013-03-29 00:00:00
7:30 AM,82.4,73.4,74,29.80,6.2,SSE,9.2,-,N/A,,Partly Cloudy,150,2013-03-29 00:30:00
8:00 AM,86.0,73.4,66,29.83,6.2,South,9.2,-,N/A,,Partly Cloudy,180,2013-03-29 01:00:00
8:30 AM,87.8,73.4,62,29.83,6.2,South,10.4,-,N/A,,Partly Cloudy,180,2013-03-29 01:30:00
9:00 AM,87.8,73.4,62,29.83,6.2,South,10.4,-,N/A,,Partly Cloudy,180,2013-03-29 02:00:00
9:30 AM,89.6,73.4,59,29.83,6.2,South,10.4,-,N/A,,Partly Cloudy,180,2013-03-29 02:30:00
10:00 AM,91.4,69.8,49,29.83,6.2,SSW,9.2,-,N/A,,Partly Cloudy,210,2013-03-29 03:00:00
10:30 AM,93.2,69.8,46,29.80,6.2,South,9.2,-,N/A,,Partly Cloudy,180,2013-03-29 03:30:00
11:00 AM,93.2,68.0,44,29.80,6.2,SSE,8.1,-,N/A,,Partly Cloudy,150,2013-03-29 04:00:00
11:30 AM,95.0,68.0,41,29.80,6.2,South,9.2,-,N/A,,Partly Cloudy,180,2013-03-29 04:30:00
12:00 PM,96.8,66.2,37,29.77,6.2,SSW,11.5,-,N/A,,Partly Cloudy,210,2013-03-29 05:00:00
12:30 PM,96.8,64.4,34,29.74,6.2,South,10.4,-,N/A,,Partly Cloudy,180,2013-03-29 05:30:00
1:00 PM,98.6,64.4,32,29.74,6.2,SSE,8.1,-,N/A,,Partly Cloudy,150,2013-03-29 06:00:00
1:30 PM,98.6,64.4,32,29.71,6.2,SSE,8.1,-,N/A,,Partly Cloudy,160,2013-03-29 06:30:00
2:00 PM,98.6,62.6,30,29.71,6.2,SE,6.9,-,N/A,,Scattered Clouds,140,2013-03-29 07:00:00
2:30 PM,98.6,62.6,30,29.68,6.2,SSE,6.9,-,N/A,,Scattered Clouds,150,2013-03-29 07:30:00
3:00 PM,98.6,62.6,30,29.68,6.2,ESE,11.5,-,N/A,,Scattered Clouds,120,2013-03-29 08:00:00
3:30 PM,98.6,64.4,32,29.65,6.2,SE,9.2,-,N/A,,Scattered Clouds,130,2013-03-29 08:30:00
4:00 PM,100.4,64.4,31,29.65,6.2,SE,10.4,-,N/A,,Scattered Clouds,130,2013-03-29 09:00:00
4:30 PM,98.6,64.4,32,29.65,6.2,SE,8.1,-,N/A,,Scattered Clouds,140,2013-03-29 09:30:00
5:00 PM,96.8,64.4,34,29.65,6.2,SE,11.5,-,N/A,,Scattered Clouds,130,2013-03-29 10:00:00
5:30 PM,96.8,64.4,34,29.65,6.2,SE,6.9,-,N/A,,Partly Cloudy,140,2013-03-29 10:30:00
6:00 PM,95.0,66.2,39,29.68,6.2,SE,11.5,-,N/A,,Partly Cloudy,130,2013-03-29 11:00:00
6:30 PM,93.2,66.2,41,29.68,5.6,SSE,10.4,-,N/A,,Partly Cloudy,150,2013-03-29 11:30:00
7:00 PM,93.2,68.0,44,29.68,5.6,SSE,11.5,-,N/A,,Partly Cloudy,150,2013-03-29 12:00:00
7:30 PM,91.4,69.8,49,29.71,5.6,SSE,9.2,-,N/A,,Partly Cloudy,160,2013-03-29 12:30:00
8:00 PM,91.4,69.8,49,29.71,5.6,South,10.4,-,N/A,,Scattered Clouds,180,2013-03-29 13:00:00
8:30 PM,91.4,69.8,49,29.74,6.2,SSW,11.5,-,N/A,,Partly Cloudy,210,2013-03-29 13:30:00
9:00 PM,91.4,68.0,46,29.74,6.2,SSW,11.5,-,N/A,,Partly Cloudy,210,2013-03-29 14:00:00
9:30 PM,89.6,66.2,46,29.74,6.2,SSW,9.2,-,N/A,,Partly Cloudy,200,2013-03-29 14:30:00
10:00 PM,89.6,68.0,49,29.74,6.2,SSW,6.9,-,N/A,,Partly Cloudy,210,2013-03-29 15:00:00
10:30 PM,87.8,66.2,49,29.74,6.2,SW,6.9,-,N/A,,Partly Cloudy,230,2013-03-29 15:30:00
11:00 PM,87.8,66.2,49,29.74,6.2,WSW,4.6,-,N/A,,Partly Cloudy,250,2013-03-29 16:00:00
11:30 PM,86.0,71.6,62,29.74,6.2,West,5.8,-,N/A,,Partly Cloudy,260,2013-03-29 16:30:00